WXM80 ListenWXM80 Stop

You find our weather info also at:

UK Metoffice

WeatherCloud

Weather Underground

Northeastern Weather Network

AWEKAS

Citizen Weather Observer Program (CWOP)

HAMweather, WeatherForYou, PWS Weather


Weather Underground History page Text

Daily Summary for November 11, 2017 Units:  English    Metric   Both
« Previous Day
Next Day »
Daily Weekly Monthly Yearly Custom
  High: Low: Average:
Temperature: 39.5 °F 25.8 °F 31.2 °F
Dew Point: 24.9 °F 15.0 °F 18.9 °F
Humidity: 82 % 42 % 61 %
Wind Speed: 8.2 mph 0.0 mph 2.5 mph
Wind Gust: 19.6 mph - -
Wind:- - SW
Pressure: 30.55 in 30.26 in -
Precipitation: 0.00 in    
Historical Graphs
 
 
Tabular Data for November 11, 2017
Time Temperature Dew Point Pressure Wind Wind Speed Wind Gust Humidity Rainfall Rate (Hourly)
00:04 27.2 °F 15.1 °F 30.46 in WNW 2.4 mph 13.8 mph 60 % 0.00 in
00:08 27.1 °F 15.0 °F 30.46 in North 5.6 mph 11.5 mph 60 % 0.00 in
00:13 27.2 °F 15.9 °F 30.46 in WSW 0.8 mph 9.2 mph 62 % 0.00 in
00:18 27.2 °F 15.5 °F 30.46 in North 7.8 mph 17.3 mph 61 % 0.00 in
00:23 27.2 °F 15.5 °F 30.45 in NE 5.0 mph 6.9 mph 61 % 0.00 in
00:29 27.2 °F 15.9 °F 30.45 in NNW 7.7 mph 11.5 mph 62 % 0.00 in
00:34 27.2 °F 15.9 °F 30.47 in North 5.0 mph 12.0 mph 62 % 0.00 in
00:39 27.2 °F 15.9 °F 30.46 in NNW 5.8 mph 10.4 mph 62 % 0.00 in
00:44 27.1 °F 15.4 °F 30.46 in NW 4.6 mph 13.8 mph 61 % 0.00 in
00:49 27.2 °F 16.3 °F 30.44 in West 5.7 mph 9.2 mph 63 % 0.00 in
00:54 27.1 °F 16.2 °F 30.44 in NW 3.9 mph 8.1 mph 63 % 0.00 in
00:55 27.2 °F 16.3 °F 30.45 in NNW 3.8 mph 8.1 mph 63 % 0.00 in
01:00 27.1 °F 15.4 °F 30.45 in NNW 6.8 mph 11.5 mph 61 % 0.00 in
01:05 27.1 °F 15.4 °F 30.45 in NW 4.6 mph 10.4 mph 61 % 0.00 in
01:10 27.1 °F 15.4 °F 30.44 in NNW 3.7 mph 11.5 mph 61 % 0.00 in
01:15 27.1 °F 15.8 °F 30.44 in WNW 6.0 mph 10.4 mph 62 % 0.00 in
01:20 27.1 °F 15.4 °F 30.45 in NW 3.0 mph 8.1 mph 61 % 0.00 in
01:25 27.1 °F 15.4 °F 30.45 in NNW 6.8 mph 10.4 mph 61 % 0.00 in
01:30 27.1 °F 15.4 °F 30.45 in NNE 6.4 mph 10.4 mph 61 % 0.00 in
01:35 27.1 °F 15.4 °F 30.46 in NNE 8.2 mph 10.4 mph 61 % 0.00 in
01:40 27.1 °F 15.8 °F 30.46 in NNW 5.0 mph 9.2 mph 62 % 0.00 in
01:45 27.1 °F 16.5 °F 30.46 in NW 6.0 mph 9.2 mph 64 % 0.00 in
01:50 27.1 °F 15.8 °F 30.47 in NNW 6.4 mph 11.5 mph 62 % 0.00 in
01:55 27.1 °F 15.8 °F 30.46 in NNW 5.0 mph 12.0 mph 62 % 0.00 in
02:00 27.1 °F 15.8 °F 30.46 in WNW 2.9 mph 5.8 mph 62 % 0.00 in
02:01 27.1 °F 15.8 °F 30.46 in WNW 3.8 mph 10.0 mph 62 % 0.00 in
02:06 27.0 °F 16.1 °F 30.46 in NW 4.5 mph 10.4 mph 63 % 0.00 in
02:11 27.0 °F 16.4 °F 30.45 in WNW 4.9 mph 12.7 mph 64 % 0.00 in
02:16 26.9 °F 16.3 °F 30.46 in North 3.3 mph 10.4 mph 64 % 0.00 in
02:21 26.8 °F 16.2 °F 30.46 in NW 3.5 mph 7.0 mph 64 % 0.00 in
02:26 26.8 °F 16.6 °F 30.46 in NNW 2.1 mph 6.0 mph 65 % 0.00 in
02:31 26.8 °F 17.0 °F 30.46 in NNW 1.6 mph 8.1 mph 66 % 0.00 in
02:36 26.8 °F 17.3 °F 30.46 in NNW 2.7 mph 11.5 mph 67 % 0.00 in
02:41 26.7 °F 16.9 °F 30.45 in WNW 2.0 mph 10.4 mph 66 % 0.00 in
02:46 26.8 °F 17.3 °F 30.45 in NW 4.4 mph 7.0 mph 67 % 0.00 in
02:52 26.8 °F 17.3 °F 30.45 in NW 4.6 mph 6.9 mph 67 % 0.00 in
02:57 26.8 °F 17.0 °F 30.45 in WNW 1.5 mph 11.5 mph 66 % 0.00 in
03:02 26.8 °F 17.0 °F 30.45 in WNW 5.8 mph 12.7 mph 66 % 0.00 in
03:07 26.8 °F 17.3 °F 30.45 in WNW 4.7 mph 9.0 mph 67 % 0.00 in
03:12 26.7 °F 16.9 °F 30.45 in WSW 5.9 mph 14.0 mph 66 % 0.00 in
03:17 26.7 °F 17.2 °F 30.46 in NNW 5.7 mph 12.0 mph 67 % 0.00 in
03:22 26.7 °F 17.2 °F 30.45 in ENE 6.9 mph 10.4 mph 67 % 0.00 in
03:27 26.8 °F 17.0 °F 30.45 in NNW 5.0 mph 19.6 mph 66 % 0.00 in
03:32 26.8 °F 17.3 °F 30.45 in NW 4.8 mph 15.0 mph 67 % 0.00 in
03:37 26.9 °F 18.1 °F 30.46 in NW 6.5 mph 11.5 mph 69 % 0.00 in
03:42 27.0 °F 17.8 °F 30.46 in NW 5.0 mph 8.1 mph 68 % 0.00 in
03:47 27.0 °F 17.8 °F 30.46 in WNW 3.0 mph 8.1 mph 68 % 0.00 in
03:52 27.0 °F 17.8 °F 30.46 in NNW 4.8 mph 8.1 mph 68 % 0.00 in
03:57 27.1 °F 18.3 °F 30.47 in NW 6.5 mph 11.5 mph 69 % 0.00 in
04:02 27.1 °F 18.3 °F 30.48 in NNW 4.8 mph 11.5 mph 69 % 0.00 in
04:07 27.1 °F 18.6 °F 30.49 in West 7.7 mph 11.5 mph 70 % 0.00 in
04:12 27.1 °F 18.6 °F 30.49 in WNW 4.4 mph 8.1 mph 70 % 0.00 in
04:17 27.1 °F 18.6 °F 30.49 in WNW 2.9 mph 5.8 mph 70 % 0.00 in
04:22 27.1 °F 18.3 °F 30.49 in WNW 3.3 mph 5.8 mph 69 % 0.00 in
04:27 27.1 °F 18.3 °F 30.49 in West 5.7 mph 8.1 mph 69 % 0.00 in
04:32 27.0 °F 18.2 °F 30.50 in NW 2.5 mph 6.9 mph 69 % 0.00 in
04:37 26.9 °F 18.1 °F 30.49 in NNW 4.3 mph 8.1 mph 69 % 0.00 in
04:42 26.9 °F 18.4 °F 30.49 in WNW 1.8 mph 3.5 mph 70 % 0.00 in
04:47 26.8 °F 18.7 °F 30.50 in WNW 3.6 mph 7.0 mph 71 % 0.00 in
04:52 26.7 °F 18.2 °F 30.50 in NW 3.3 mph 7.0 mph 70 % 0.00 in
04:57 26.7 °F 18.6 °F 30.50 in NNW 3.5 mph 5.8 mph 71 % 0.00 in
05:02 26.6 °F 18.1 °F 30.50 in NNW 3.3 mph 6.0 mph 70 % 0.00 in
05:04 26.6 °F 18.1 °F 30.50 in WNW 6.3 mph 11.5 mph 70 % 0.00 in
05:09 26.5 °F 17.7 °F 30.50 in North 2.7 mph 5.8 mph 69 % 0.00 in
05:14 26.5 °F 17.7 °F 30.50 in NW 4.3 mph 8.1 mph 69 % 0.00 in
05:19 26.5 °F 18.0 °F 30.50 in NNW 1.7 mph 4.0 mph 70 % 0.00 in
05:24 26.5 °F 17.7 °F 30.50 in WNW 2.0 mph 8.1 mph 69 % 0.00 in
05:29 26.4 °F 17.6 °F 30.50 in NW 3.1 mph 5.8 mph 69 % 0.00 in
05:34 26.4 °F 17.6 °F 30.50 in NW 4.1 mph 5.8 mph 69 % 0.00 in
05:39 26.3 °F 17.5 °F 30.50 in NNE 2.9 mph 10.0 mph 69 % 0.00 in
05:44 26.3 °F 17.2 °F 30.50 in NNW 4.0 mph 6.9 mph 68 % 0.00 in
05:49 26.2 °F 17.4 °F 30.50 in NNE 3.3 mph 6.9 mph 69 % 0.00 in
05:54 26.2 °F 17.7 °F 30.50 in NNW 3.2 mph 6.0 mph 70 % 0.00 in
05:59 26.2 °F 17.7 °F 30.51 in NW 1.8 mph 3.5 mph 70 % 0.00 in
06:04 26.1 °F 17.6 °F 30.51 in WNW 3.7 mph 9.2 mph 70 % 0.00 in
06:09 26.1 °F 17.6 °F 30.51 in NE 5.5 mph 6.0 mph 70 % 0.00 in
06:14 26.1 °F 17.3 °F 30.50 in North 2.4 mph 5.8 mph 69 % 0.00 in
06:19 26.0 °F 16.9 °F 30.50 in North 1.4 mph 6.9 mph 68 % 0.00 in
06:24 26.0 °F 17.2 °F 30.50 in NNW 4.6 mph 8.0 mph 69 % 0.00 in
06:29 25.9 °F 16.8 °F 30.51 in NNE 2.1 mph 9.2 mph 68 % 0.00 in
06:35 25.8 °F 17.0 °F 30.51 in NNW 2.6 mph 9.2 mph 69 % 0.00 in
06:40 25.8 °F 17.0 °F 30.51 in NW 4.3 mph 9.2 mph 69 % 0.00 in
06:45 25.8 °F 17.0 °F 30.51 in NNW 3.5 mph 5.8 mph 69 % 0.00 in
06:50 25.8 °F 17.4 °F 30.51 in NNE 3.2 mph 7.0 mph 70 % 0.00 in
06:55 25.9 °F 17.5 °F 30.52 in NNE 4.2 mph 8.1 mph 70 % 0.00 in
07:00 26.0 °F 16.9 °F 30.52 in ENE 4.6 mph 6.9 mph 68 % 0.00 in
07:05 26.1 °F 16.6 °F 30.53 in NNE 4.3 mph 6.9 mph 67 % 0.00 in
07:10 26.1 °F 16.6 °F 30.54 in WNW 3.7 mph 8.1 mph 67 % 0.00 in
07:15 26.2 °F 16.4 °F 30.53 in NNW 3.0 mph 6.0 mph 66 % 0.00 in
07:20 26.2 °F 16.0 °F 30.53 in North 6.5 mph 11.5 mph 65 % 0.00 in
07:25 26.3 °F 15.4 °F 30.53 in North 7.6 mph 11.5 mph 63 % 0.00 in
07:30 26.4 °F 15.5 °F 30.53 in NNW 0.9 mph 5.8 mph 63 % 0.00 in
07:36 26.5 °F 16.7 °F 30.53 in NNW 3.0 mph 12.0 mph 66 % 0.00 in
07:41 26.6 °F 15.7 °F 30.53 in NNW 2.0 mph 10.0 mph 63 % 0.00 in
07:46 26.6 °F 15.0 °F 30.53 in North 6.0 mph 9.0 mph 61 % 0.00 in
07:51 26.7 °F 15.4 °F 30.53 in North 7.0 mph 12.0 mph 62 % 0.00 in
07:56 26.8 °F 15.1 °F 30.54 in North 5.0 mph 10.0 mph 61 % 0.00 in
08:01 26.9 °F 15.6 °F 30.54 in NW 3.7 mph 6.9 mph 62 % 0.00 in
08:06 27.0 °F 15.7 °F 30.54 in North 4.1 mph 11.5 mph 62 % 0.00 in
08:11 27.0 °F 15.3 °F 30.54 in NNE 5.7 mph 10.4 mph 61 % 0.00 in
08:16 27.2 °F 15.9 °F 30.54 in NNE 6.8 mph 9.2 mph 62 % 0.00 in
08:21 27.3 °F 15.6 °F 30.54 in North 5.7 mph 11.0 mph 61 % 0.00 in
08:26 27.4 °F 15.7 °F 30.54 in NNE 4.0 mph 10.4 mph 61 % 0.00 in
08:31 27.5 °F 15.8 °F 30.55 in NNW 2.5 mph 3.5 mph 61 % 0.00 in
08:36 27.7 °F 15.6 °F 30.55 in North 4.6 mph 8.1 mph 60 % 0.00 in
08:41 28.1 °F 16.4 °F 30.55 in North 6.1 mph 9.2 mph 61 % 0.00 in
08:46 28.6 °F 17.2 °F 30.54 in NW 2.4 mph 6.9 mph 62 % 0.00 in
08:51 29.1 °F 17.3 °F 30.55 in NNE 4.1 mph 6.0 mph 61 % 0.00 in
08:56 29.7 °F 17.5 °F 30.54 in North 2.0 mph 5.8 mph 60 % 0.00 in
09:01 30.3 °F 17.7 °F 30.54 in NW 1.6 mph 9.2 mph 59 % 0.00 in
09:06 30.7 °F 17.7 °F 30.54 in North 2.9 mph 5.8 mph 58 % 0.00 in
09:11 31.2 °F 18.5 °F 30.54 in North 3.1 mph 7.0 mph 59 % 0.00 in
09:16 31.6 °F 18.1 °F 30.54 in North 5.9 mph 9.2 mph 57 % 0.00 in
09:21 32.0 °F 18.9 °F 30.54 in WNW 3.8 mph 6.9 mph 58 % 0.00 in
09:26 32.6 °F 18.6 °F 30.54 in North 5.7 mph 9.2 mph 56 % 0.00 in
09:31 33.1 °F 18.2 °F 30.54 in NNE 2.6 mph 4.0 mph 54 % 0.00 in
09:41 34.1 °F 18.7 °F 30.54 in North 3.8 mph 8.1 mph 53 % 0.00 in
09:46 34.3 °F 18.9 °F 30.54 in North 2.3 mph 7.0 mph 53 % 0.00 in
09:51 34.9 °F 19.5 °F 30.54 in NNW 2.0 mph 6.9 mph 53 % 0.00 in
09:56 35.4 °F 18.6 °F 30.54 in NW 5.3 mph 8.0 mph 50 % 0.00 in
10:01 35.7 °F 18.4 °F 30.54 in NE 5.3 mph 11.5 mph 49 % 0.00 in
10:06 36.0 °F 18.2 °F 30.54 in NNW 3.2 mph 5.8 mph 48 % 0.00 in
10:11 36.2 °F 18.9 °F 30.54 in North 3.6 mph 5.8 mph 49 % 0.00 in
10:16 36.3 °F 18.0 °F 30.54 in West 3.1 mph 4.6 mph 47 % 0.00 in
10:21 36.5 °F 19.6 °F 30.54 in NNE 3.1 mph 4.6 mph 50 % 0.00 in
10:27 36.6 °F 18.7 °F 30.54 in NE 3.2 mph 5.8 mph 48 % 0.00 in
10:32 36.7 °F 18.8 °F 30.54 in North 3.1 mph 6.9 mph 48 % 0.00 in
10:37 36.7 °F 19.3 °F 30.54 in NNW 3.4 mph 5.8 mph 49 % 0.00 in
10:42 36.8 °F 19.9 °F 30.54 in NNW 2.7 mph 10.4 mph 50 % 0.00 in
10:47 36.9 °F 19.5 °F 30.54 in ENE 2.9 mph 5.0 mph 49 % 0.00 in
10:52 36.6 °F 18.2 °F 30.54 in NNW 6.0 mph 9.2 mph 47 % 0.00 in
10:53 36.6 °F 17.7 °F 30.54 in North 6.2 mph 9.2 mph 46 % 0.00 in
10:58 36.3 °F 18.0 °F 30.54 in North 4.1 mph 6.0 mph 47 % 0.00 in
11:03 36.1 °F 18.8 °F 30.54 in NW 2.8 mph 5.0 mph 49 % 0.00 in
11:08 35.8 °F 18.0 °F 30.54 in NW 2.9 mph 5.8 mph 48 % 0.00 in
11:13 35.6 °F 17.8 °F 30.54 in NNE 6.1 mph 9.2 mph 48 % 0.00 in
11:18 35.3 °F 18.0 °F 30.54 in NNE 4.2 mph 10.4 mph 49 % 0.00 in
11:23 34.9 °F 18.1 °F 30.54 in North 5.5 mph 8.1 mph 50 % 0.00 in
11:28 34.5 °F 17.8 °F 30.53 in NNE 1.6 mph 5.0 mph 50 % 0.00 in
11:33 34.3 °F 17.6 °F 30.53 in North 3.5 mph 6.9 mph 50 % 0.00 in
11:38 34.2 °F 17.5 °F 30.52 in NNE 4.3 mph 6.0 mph 50 % 0.00 in
11:43 34.1 °F 17.8 °F 30.53 in North 5.6 mph 10.4 mph 51 % 0.00 in
11:48 34.1 °F 17.8 °F 30.53 in NNW 2.5 mph 4.6 mph 51 % 0.00 in
11:53 34.1 °F 17.8 °F 30.53 in NW 0.8 mph 4.6 mph 51 % 0.00 in
11:58 34.3 °F 18.0 °F 30.52 in NNE 2.7 mph 5.8 mph 51 % 0.00 in
12:04 34.3 °F 17.1 °F 30.52 in NNW 4.3 mph 8.1 mph 49 % 0.00 in
12:08 34.3 °F 18.0 °F 30.52 in WNW 2.0 mph 6.0 mph 51 % 0.00 in
12:14 34.3 °F 18.5 °F 30.51 in NNW 2.8 mph 5.8 mph 52 % 0.00 in
12:19 34.3 °F 17.1 °F 30.52 in NW 2.0 mph 4.6 mph 49 % 0.00 in
12:24 34.4 °F 17.7 °F 30.52 in NNE 4.0 mph 8.1 mph 50 % 0.00 in
12:29 34.4 °F 17.7 °F 30.52 in North 2.0 mph 4.0 mph 50 % 0.00 in
12:34 34.5 °F 17.8 °F 30.51 in North 4.2 mph 5.8 mph 50 % 0.00 in
12:39 34.7 °F 17.9 °F 30.51 in NNE 1.8 mph 4.0 mph 50 % 0.00 in
12:44 34.8 °F 18.0 °F 30.52 in NNW 2.5 mph 4.6 mph 50 % 0.00 in
12:49 35.0 °F 18.7 °F 30.51 in North 2.4 mph 6.9 mph 51 % 0.00 in
12:54 35.4 °F 19.0 °F 30.50 in North 0.8 mph 4.6 mph 51 % 0.00 in
12:59 35.7 °F 19.3 °F 30.50 in NNW 0.6 mph 3.5 mph 51 % 0.00 in
13:05 36.3 °F 19.9 °F 30.50 in North 5.5 mph 9.0 mph 51 % 0.00 in
13:10 37.0 °F 19.1 °F 30.50 in North 6.3 mph 11.0 mph 48 % 0.00 in
13:15 37.4 °F 19.0 °F 30.49 in NNW 3.7 mph 5.8 mph 47 % 0.00 in
13:20 37.9 °F 18.9 °F 30.49 in NNW 1.3 mph 4.6 mph 46 % 0.00 in
13:25 38.3 °F 19.3 °F 30.49 in North 2.8 mph 4.6 mph 46 % 0.00 in
13:30 38.6 °F 18.5 °F 30.49 in NW 2.5 mph 2.5 mph 44 % 0.00 in
13:35 39.0 °F 19.4 °F 30.48 in NW 1.4 mph 4.6 mph 45 % 0.00 in
13:40 39.3 °F 20.2 °F 30.49 in NNE 1.5 mph 5.8 mph 46 % 0.00 in
13:45 39.4 °F 19.3 °F 30.48 in NW 1.4 mph 3.5 mph 44 % 0.00 in
13:50 39.4 °F 18.7 °F 30.48 in North 4.3 mph 6.9 mph 43 % 0.00 in
13:55 39.5 °F 19.4 °F 30.48 in North 0.9 mph 2.3 mph 44 % 0.00 in
14:00 39.3 °F 19.2 °F 30.48 in North 3.5 mph 8.1 mph 44 % 0.00 in
14:05 39.2 °F 18.5 °F 30.48 in ENE 1.4 mph 3.5 mph 43 % 0.00 in
14:10 38.9 °F 18.8 °F 30.48 in NNE 2.4 mph 4.6 mph 44 % 0.00 in
14:15 38.7 °F 18.6 °F 30.47 in North 5.8 mph 9.2 mph 44 % 0.00 in
14:20 38.4 °F 18.4 °F 30.48 in ENE 1.4 mph 4.6 mph 44 % 0.00 in
14:25 38.1 °F 19.1 °F 30.48 in North 3.7 mph 9.2 mph 46 % 0.00 in
14:30 37.9 °F 17.9 °F 30.47 in North 3.5 mph 5.8 mph 44 % 0.00 in
14:35 37.7 °F 17.7 °F 30.48 in NNE 1.9 mph 4.6 mph 44 % 0.00 in
14:40 37.6 °F 17.6 °F 30.47 in NE 1.6 mph 3.5 mph 44 % 0.00 in
14:45 37.5 °F 18.1 °F 30.48 in North 1.3 mph 3.5 mph 45 % 0.00 in
14:50 37.4 °F 18.5 °F 30.48 in NE 1.1 mph 3.5 mph 46 % 0.00 in
14:55 37.3 °F 17.4 °F 30.47 in NNE 1.6 mph 2.3 mph 44 % 0.00 in
15:00 37.3 °F 16.8 °F 30.48 in ENE 2.6 mph 3.5 mph 43 % 0.00 in
15:05 37.2 °F 16.7 °F 30.48 in ENE 0.7 mph 1.2 mph 43 % 0.00 in
15:10 37.1 °F 16.1 °F 30.48 in NE 1.7 mph 3.5 mph 42 % 0.00 in
15:15 37.1 °F 16.6 °F 30.48 in NE 1.2 mph 1.2 mph 43 % 0.00 in
15:20 37.1 °F 17.7 °F 30.48 in ENE 2.2 mph 3.5 mph 45 % 0.00 in
15:22 37.1 °F 17.7 °F 30.47 in ENE 1.1 mph 3.5 mph 45 % 0.00 in
15:27 37.1 °F 17.7 °F 30.48 in North 0.4 mph 4.6 mph 45 % 0.00 in
15:32 37.0 °F 18.1 °F 30.48 in North 0.3 mph 1.2 mph 46 % 0.00 in
15:37 37.0 °F 18.1 °F 30.48 in North 0.4 mph 2.0 mph 46 % 0.00 in
15:42 36.9 °F 18.5 °F 30.47 in NNE 1.4 mph 3.5 mph 47 % 0.00 in
15:47 36.8 °F 18.4 °F 30.48 in NNE 2.2 mph 3.5 mph 47 % 0.00 in
15:52 36.7 °F 18.3 °F 30.48 in Calm     47 % 0.00 in
15:54 36.7 °F 18.3 °F 30.48 in NNE 0.4 mph 2.3 mph 47 % 0.00 in
15:59 36.6 °F 18.7 °F 30.48 in NNE 1.6 mph 3.5 mph 48 % 0.00 in
16:04 36.4 °F 19.0 °F 30.49 in Calm     49 % 0.00 in
16:09 36.3 °F 18.5 °F 30.48 in NNE 1.2 mph 2.3 mph 48 % 0.00 in
16:14 36.2 °F 18.9 °F 30.49 in NNE 0.8 mph 3.0 mph 49 % 0.00 in
16:20 36.1 °F 19.2 °F 30.48 in Calm   1.2 mph 50 % 0.00 in
16:25 36.0 °F 18.7 °F 30.48 in Calm   1.2 mph 49 % 0.00 in
16:30 35.9 °F 18.6 °F 30.49 in North 1.4 mph 3.5 mph 49 % 0.00 in
16:35 35.7 °F 18.4 °F 30.48 in North 0.7 mph 4.0 mph 49 % 0.00 in
16:40 35.7 °F 18.4 °F 30.49 in NNW 0.5 mph 3.0 mph 49 % 0.00 in
16:45 35.6 °F 18.8 °F 30.49 in NW 0.8 mph 4.0 mph 50 % 0.00 in
16:50 35.5 °F 18.7 °F 30.49 in North 0.4 mph 2.3 mph 50 % 0.00 in
16:55 35.5 °F 18.7 °F 30.49 in NNE 1.2 mph 4.0 mph 50 % 0.00 in
17:00 35.4 °F 19.0 °F 30.50 in NNE 0.1 mph   51 % 0.00 in
17:05 35.3 °F 19.4 °F 30.49 in NW 0.4 mph 1.2 mph 52 % 0.00 in
17:10 35.3 °F 19.0 °F 30.50 in Calm   1.2 mph 51 % 0.00 in
17:16 35.2 °F 19.3 °F 30.50 in Calm     52 % 0.00 in
17:19 35.2 °F 19.3 °F 30.49 in Calm     52 % 0.00 in
17:24 35.1 °F 19.7 °F 30.49 in Calm     53 % 0.00 in
17:26 35.1 °F 20.1 °F 30.49 in Calm     54 % 0.00 in
17:31 35.0 °F 20.9 °F 30.50 in Calm     56 % 0.00 in
17:36 34.9 °F 20.8 °F 30.50 in Calm     56 % 0.00 in
17:41 34.8 °F 20.7 °F 30.50 in Calm     56 % 0.00 in
17:46 34.7 °F 21.8 °F 30.50 in Calm   1.0 mph 59 % 0.00 in
17:51 34.5 °F 21.6 °F 30.50 in Calm   1.0 mph 59 % 0.00 in
17:56 34.4 °F 21.5 °F 30.50 in Calm   1.0 mph 59 % 0.00 in
18:01 34.1 °F 21.7 °F 30.51 in NNW 0.7 mph 2.3 mph 60 % 0.00 in
18:06 34.0 °F 21.9 °F 30.50 in Calm   2.0 mph 61 % 0.00 in
18:11 33.7 °F 21.7 °F 30.50 in Calm     61 % 0.00 in
18:16 33.5 °F 21.1 °F 30.51 in NNW 0.2 mph 1.2 mph 60 % 0.00 in
18:21 33.4 °F 21.4 °F 30.51 in Calm     61 % 0.00 in
18:26 33.2 °F 21.2 °F 30.51 in Calm   1.2 mph 61 % 0.00 in
18:31 33.0 °F 21.4 °F 30.51 in NNW 1.1 mph 2.3 mph 62 % 0.00 in
18:36 32.8 °F 21.6 °F 30.51 in Calm     63 % 0.00 in
18:41 32.7 °F 21.5 °F 30.51 in Calm     63 % 0.00 in
18:46 32.5 °F 21.3 °F 30.51 in Calm     63 % 0.00 in
18:51 32.4 °F 21.9 °F 30.51 in NW 0.5 mph 2.3 mph 65 % 0.00 in
18:56 32.2 °F 21.7 °F 30.52 in NW 0.5 mph 1.2 mph 65 % 0.00 in
19:01 32.1 °F 21.7 °F 30.52 in Calm     65 % 0.00 in
19:06 31.9 °F 21.5 °F 30.52 in Calm     65 % 0.00 in
19:11 31.9 °F 21.8 °F 30.51 in Calm   1.2 mph 66 % 0.00 in
19:16 31.7 °F 21.6 °F 30.51 in Calm     66 % 0.00 in
19:21 31.6 °F 21.5 °F 30.51 in Calm     66 % 0.00 in
19:26 31.5 °F 21.4 °F 30.51 in Calm     66 % 0.00 in
19:31 31.4 °F 21.3 °F 30.51 in NW 0.1 mph 1.2 mph 66 % 0.00 in
19:36 31.3 °F 21.6 °F 30.51 in Calm   1.2 mph 67 % 0.00 in
19:41 31.2 °F 21.5 °F 30.51 in NW 0.1 mph 1.2 mph 67 % 0.00 in
19:46 31.2 °F 21.5 °F 30.51 in Calm   1.2 mph 67 % 0.00 in
19:51 31.1 °F 21.4 °F 30.51 in Calm     67 % 0.00 in
19:56 31.0 °F 21.7 °F 30.52 in NW 0.4 mph 2.3 mph 68 % 0.00 in
20:01 30.9 °F 21.6 °F 30.52 in NW 0.2 mph 2.3 mph 68 % 0.00 in
20:06 30.9 °F 21.9 °F 30.52 in Calm   1.2 mph 69 % 0.00 in
20:11 30.8 °F 21.8 °F 30.52 in Calm     69 % 0.00 in
20:16 30.8 °F 21.8 °F 30.51 in Calm     69 % 0.00 in
20:21 30.8 °F 22.2 °F 30.52 in Calm     70 % 0.00 in
20:26 30.8 °F 22.2 °F 30.52 in NNW 2.2 mph 3.5 mph 70 % 0.00 in
20:31 30.8 °F 22.5 °F 30.51 in Calm   1.2 mph 71 % 0.00 in
20:37 30.7 °F 22.4 °F 30.51 in Calm   1.2 mph 71 % 0.00 in
20:41 30.8 °F 22.8 °F 30.51 in NW 1.5 mph 2.0 mph 72 % 0.00 in
20:46 30.8 °F 22.8 °F 30.51 in WNW 0.1 mph 1.2 mph 72 % 0.00 in
20:52 30.8 °F 22.8 °F 30.51 in WNW 1.7 mph 2.3 mph 72 % 0.00 in
20:57 30.8 °F 22.8 °F 30.51 in WNW 0.2 mph 3.5 mph 72 % 0.00 in
21:02 30.8 °F 22.8 °F 30.50 in WNW 0.4 mph 2.3 mph 72 % 0.00 in
21:07 30.8 °F 22.8 °F 30.50 in WNW 0.8 mph 2.3 mph 72 % 0.00 in
21:12 30.8 °F 22.8 °F 30.49 in WNW 0.4 mph 1.2 mph 72 % 0.00 in
21:17 30.8 °F 23.2 °F 30.50 in Calm   1.2 mph 73 % 0.00 in
21:22 30.7 °F 23.1 °F 30.50 in Calm     73 % 0.00 in
21:27 30.7 °F 23.1 °F 30.50 in WNW 0.5 mph 1.0 mph 73 % 0.00 in
21:32 30.6 °F 23.0 °F 30.50 in Calm     73 % 0.00 in
21:37 30.6 °F 23.0 °F 30.49 in Calm     73 % 0.00 in
21:42 30.5 °F 22.9 °F 30.49 in Calm     73 % 0.00 in
21:47 30.4 °F 23.1 °F 30.49 in Calm     74 % 0.00 in
21:52 30.3 °F 23.0 °F 30.49 in Calm   1.2 mph 74 % 0.00 in
21:57 30.2 °F 22.9 °F 30.49 in Calm     74 % 0.00 in
22:02 30.1 °F 22.8 °F 30.49 in Calm     74 % 0.00 in
22:07 30.0 °F 22.7 °F 30.49 in WNW 0.4 mph 1.2 mph 74 % 0.00 in
22:12 29.9 °F 22.6 °F 30.49 in Calm     74 % 0.00 in
22:17 29.8 °F 22.5 °F 30.49 in WNW 0.9 mph 2.3 mph 74 % 0.00 in
22:22 29.8 °F 22.8 °F 30.26 in WNW 0.3 mph   75 % 0.00 in
22:23 29.7 °F 22.7 °F 30.26 in WNW 0.6 mph 1.0 mph 75 % 0.00 in
22:25 29.7 °F 22.7 °F 30.48 in WNW 0.3 mph 1.2 mph 75 % 0.00 in
22:29 29.7 °F 22.7 °F 30.26 in Calm   1.2 mph 75 % 0.00 in
22:30 29.6 °F 22.6 °F 30.48 in Calm     75 % 0.00 in
22:35 29.6 °F 23.0 °F 30.49 in Calm     76 % 0.00 in
22:40 29.5 °F 22.9 °F 30.49 in Calm     76 % 0.00 in
22:45 29.4 °F 22.8 °F 30.48 in WNW 0.3 mph 1.2 mph 76 % 0.00 in
22:50 29.4 °F 22.8 °F 30.48 in Calm     76 % 0.00 in
22:53 29.4 °F 23.1 °F 30.48 in Calm     77 % 0.00 in
22:58 29.3 °F 23.0 °F 30.48 in Calm     77 % 0.00 in
23:03 29.3 °F 23.0 °F 30.48 in Calm     77 % 0.00 in
23:08 29.3 °F 23.3 °F 30.48 in WNW 1.1 mph 2.3 mph 78 % 0.00 in
23:13 29.3 °F 23.3 °F 30.48 in Calm   1.0 mph 78 % 0.00 in
23:18 29.2 °F 23.2 °F 30.48 in Calm   1.0 mph 78 % 0.00 in
23:23 29.2 °F 23.5 °F 30.48 in Calm     79 % 0.00 in
23:28 29.2 °F 23.5 °F 30.49 in WNW 0.8 mph 2.3 mph 79 % 0.00 in
23:34 29.2 °F 23.8 °F 30.49 in WNW 1.1 mph 2.3 mph 80 % 0.00 in
23:39 29.3 °F 24.2 °F 30.49 in West 1.5 mph 3.5 mph 81 % 0.00 in
23:44 29.3 °F 24.2 °F 30.50 in West 1.0 mph 2.3 mph 81 % 0.00 in
23:49 29.4 °F 24.6 °F 30.50 in West 1.4 mph 3.5 mph 82 % 0.00 in
23:54 29.6 °F 24.8 °F 30.50 in West 0.6 mph 3.5 mph 82 % 0.00 in
23:59 29.7 °F 24.9 °F 30.49 in West 0.1 mph 3.5 mph 82 % 0.00 in
Crab Meadow Weather
Compliments of Weather Underground - 3 mb

Script developed by  Jim McMurry - jmcmurry@mwt.net Adapted for the template by  Wim van der Kuil - Leuven-Template.eu

Recycling: Every ton of mixed paper recycled can save the energy equivalent of 185 gallons of gas.